ICEYE-X48

导读

ICEYE-X48是一颗合成孔径雷达卫星,由芬兰ICEYE公司运营,其发射国家暂未确定,于2025年3月15日发射入轨。该卫星延续了ICEYE星座高分辨率、重访周期短的特点,可全天时全天候获取地球观测数据,广泛服务于灾害监测、资源勘探、海事监测等多个领域,进一步扩充了全球商业SAR卫星星座的观测能力。

Basic Information
目录编号:
63253
目录名称:
ICEYE-X48
国际标识:
2025-052AV
轨道中心:
EARTH
卫星名称:
ICEYE-X48
卫星全名:
ICEYE-X48
卫星状态:
在轨 (已飞行460 天)
发射日期:
2025-03-15 UTC
国别 :
美国 (US)
星等 :
--
Orbit Information
数据来源 国际轨道数据 AOE轨道数据
星历时间 2026-06-17T23:46:48+0800
17小时前
查看轨道信息
2026-06-15T02:00:00+0800
3天前
查看轨道信息
半长轴 6951.298km 6951.373km
偏心率 0.0002197 0.0001518
轨道倾角 97.689° 97.685°
近地点辐角 142.658° 83.967°
升交点赤经 60.838° 57.974°
平近点角 217.480° 86.712°
近地点 571.633km 572.18km
远地点 574.689km 574.292km
周期 96.130分钟 96.131分钟
每日圈数 14.979728 14.979485
Detailed Information
使用方式:
暂无
2D Orbit Map
3D Orbit Map
Orbit Altitude Analysis Chart
Orbit Inclination Analysis Chart
Orbit Comprehensive Analysis Chart
View Comprehensive Chart